• Processing (Info)

  • MPEC 2009-F79 : 2009 FO28

    The following Minor Planet Electronic Circular may be linked-to from your own Web pages, but must not otherwise be redistributed electronically.

    A form allowing access to any MPEC is at the bottom of this page.


    Read MPEC 2009-F78 Read MPEC 2009-F80


    M.P.E.C. 2009-F79                                Issued 2009 Mar. 26, 14:47 UT
    
         The Minor Planet Electronic Circulars contain information on unusual
             minor planets and routine data on comets.  They are published
       on behalf of Commission 20 of the International Astronomical Union by the
              Minor Planet Center, Smithsonian Astrophysical Observatory,
                              Cambridge, MA 02138, U.S.A.
    
                 Prepared using the Tamkin Foundation Computer Network
    
                                  MPC@CFA.HARVARD.EDU
              URL http://www.cfa.harvard.edu/iau/mpc.html  ISSN 1523-6714
    
                                       2009 FO28
    
    Observations:
         K09F28O* C2009 03 25.29430 12 43 37.76 -10 21 47.6          18.1   EF079704
         K09F28O  C2009 03 25.30643 12 43 39.37 -10 20 50.0          18.2   EF079704
         K09F28O  C2009 03 25.31863 12 43 41.01 -10 19 52.0          17.8   EF079704
         K09F28O  C2009 03 25.90413 12 45 10.94 -09 31 46.8          17.8 R EF079A99
         K09F28O  C2009 03 25.90577 12 45 11.14 -09 31 39.3          17.8 R EF079A99
         K09F28O  C2009 03 25.90738 12 45 11.35 -09 31 31.8          17.8 R EF079A99
         K09F28O  C2009 03 25.90898 12 45 11.61 -09 31 23.1          17.8 R EF079A99
         K09F28O  C2009 03 25.95498 12 45 16.91 -09 27 28.2                 EF079B18
         K09F28O  C2009 03 25.95568 12 45 17.02 -09 27 25.6                 EF079B18
         K09F28O  C2009 03 26.24575 12 46 04.22 -09 02 19.8          17.8 R EF079H36
         K09F28O  C2009 03 26.24852 12 46 04.63 -09 02 05.0          17.8 R EF079H36
         K09F28O  C2009 03 26.24944 12 46 04.76 -09 01 59.9          17.5 R EF079H36
         K09F28O  C2009 03 26.25037 12 46 04.89 -09 01 55.2          17.6 R EF079H36
         K09F28O  C2009 03 26.25130 12 46 05.02 -09 01 50.4          17.7 R EF079H36
         K09F28O  C2009 03 26.26186 12 46 07.29 -09 00 48.8          18.2 R EF079854
         K09F28O  C2009 03 26.26570 12 46 07.90 -09 00 29.9          18.1 R EF079854
         K09F28O  C2009 03 26.26762 12 46 08.16 -09 00 19.2          18.0 R EF079854
         K09F28O 5C2009 03 26.30671 12 46 14.07 -08 56 55.0          17.8 R EF079673
         K09F28O 5C2009 03 26.31829 12 46 15.76 -08 55 53.6                 EF079673
         K09F28O 5C2009 03 26.32558 12 46 16.80 -08 55 14.9                 EF079673
         K09F28O 5C2009 03 26.33137 12 46 17.64 -08 54 45.3                 EF079673
    
    Observer details:
    673 Table Mountain Observatory, Wrightwood.  Observer J. Young.  0.61-m f/16
        Cassegrain + CCD.
    704 Lincoln Laboratory ETS, New Mexico.  Observers M. Bezpalko, D. Torres,
        R. Kracke, G. Spitz, J. Kistler.  Measurers J. Stuart, S. Scruggs.  1.0-m
        f/2.15 reflector + CCD.
    854 Sabino Canyon Observatory, Tucson.  Observer J. E. McGaha.  0.36-m f/10.0
        Schmidt-Cassegrain + CCD.
    A99 Osservatorio del Monte Baldo.  Observer C. Flavio.  Measurer M. Claudio.
    B18 Terskol.  Observers M. Andreev, A. Sergeev.  Measurer M. Andreev.  0.6-m
        f/12.8 reflector + CCD.
    H36 Sandlot Observatory, Scranton.  Observer G. Hug.  0.56-m reflector + CCD.
    
    Orbital elements:
    2009 FO28                                                Earth MOID = 0.0954 AU
    Epoch 2009 June 18.0 TT = JDT 2455000.5                 MPC
    M   8.11242              (2000.0)            P               Q
    n   0.33191340     Peri.   69.84945     -0.20813797     +0.97688294
    a   2.0659486      Node   188.58724     -0.97412036     -0.21152628
    e   0.5714785      Incl.   19.06317     -0.08813687     +0.03092494
    P   2.97           H   21.0           G   0.15           U   9
    Residuals in seconds of arc
    090325 704  0.1+  0.1+    090325 B18  0.6-  0.2+    090326 854  0.1-  1.3+
    090325 704  0.3+  0.2-    090325 B18  0.4-  0.8-    090326 854  0.8+  0.0
    090325 704  0.8+  0.6-    090326 H36  0.4-  0.7-    090326 854  0.5+  0.6+
    090325 A99  0.0   1.3+    090326 H36  0.2-  0.4-    090326 673  0.3+  0.1-
    090325 A99  0.5-  0.5+    090326 H36  0.2-  0.2-    090326 673  0.6+  0.1+
    090325 A99  0.8-  0.2-    090326 H36  0.3-  0.3-    090326 673  0.4+  0.2+
    090325 A99  0.4-  0.4+    090326 H36  0.4-  0.4-    090326 673  0.5+  0.9-
    
    Ephemeris:
    2009 FO28                a,e,i = 2.07, 0.57, 19                  q = 0.8853
    Date    TT    R. A. (2000) Decl.     Delta      r     Elong.  Phase     V
    2009 03 20    12 32.82   -15 49.9    0.243    1.229   161.7    14.7    19.2
    2009 03 25    12 42.90   -10 44.4    0.195    1.189   168.8     9.4    18.4
    2009 03 30    12 57.90   -02 20.2    0.152    1.149   173.9     5.3    17.6
    2009 04 04    13 22.47   +11 43.4    0.117    1.111   161.1    16.9    17.5
    2009 04 09    14 07.72   +33 15.1    0.0973   1.075   137.1    39.4    17.7
    2009 04 14    15 40.99   +55 52.5    0.0996   1.040   109.3    65.5    18.4
    2009 04 19    18 22.83   +66 10.6    0.121    1.008    88.1    85.0    19.4
    2009 04 24    20 36.02   +64 34.3    0.153    0.978    75.3    96.0    20.3
    2009 04 29    21 43.65   +60 15.1    0.190    0.952    67.8   101.5    21.0
    2009 05 04    22 20.50   +56 19.8    0.229    0.929    63.6   103.7    21.5
    2009 05 09    22 44.51   +53 06.3    0.269    0.911    61.2   103.8    21.8
    
    Sonia Keys                   (C) Copyright 2009 MPC           M.P.E.C. 2009-F79
    

    Read MPEC 2009-F78 Read MPEC 2009-F80


    MPEC number:

    Enter an MPEC number in one of the following forms:

    • 1997-B01 (the full form)
    • J97B01 (the packed version of the full form)
    • B01 (the abbreviated form)